Volver al catálogo

ONEWEB-0266

ActivoComunicacionesPO
NORAD 48984·PAYLOAD·🇬🇧 United Kingdom

Lanzado Jul 1, 2021 desde Vostochny Cosmodrome

Loading…

Próximos Pases (próximas 24 horas)

TLE

ActualizadoSource: CelesTrak SupGP

Época: Sep 15, 2026, 01:04 UTC

1 48984C 21060T   26258.04496944 -.00002843  00000+0 -74464-2 0  2588
2 48984  87.9150 210.9339 0001992  81.0974 330.6233 13.16592998    16

Sigue ONEWEB-0266 en tiempo real con AllMySat

Download on the App Store